RH
93 81 80 100 98 91 97 78 86 56 54 45 46 64 65 69 76 81 81 80 74 69 64 56 49 43 36 30 27 26 27 27 28 27 24 22 20 20 21 22 26 31 32 30
96 85 94 96 96 87 80 76 78 76 75 45 61 58 68 70 72 77 79 78 73 67 62 55 48 43 36 31 28 28 29 30 28 26 24 22 20 21 21 24 30 33 33 32
93 96 95 100 94 95 83 73 80 97 78 63 55 54 64 68 66 71 74 75 72 68 60 54 47 40 36 31 29 29 30 30 27 24 23 22 21 21 22 30 33 33 34 34
100 100 98 86 86 82 92 86 84 84 77 70 53 61 65 60 62 67 70 71 69 67 61 55 45 38 33 30 29 30 31 28 26 23 22 22 22 23 29 33 34 36 35 34
100 98 68 48 68 94 97 93 83 87 74 60 66 56 66 73 63 69 68 67 67 65 60 50 42 37 32 31 30 31 30 27 25 22 21 22 24 29 34 36 36 36 36 38
92 100 81 50 44 40 63 65 56 70 63 65 59 49 54 77 75 78 74 69 70 60 53 46 40 35 32 32 32 30 28 26 24 22 23 24 29 35 37 37 37 38 38 44
90 94 83 58 56 44 52 50 54 56 58 63 53 73 84 74 73 73 70 64 58 53 48 43 37 34 33 31 30 28 26 24 24 25 24 30 35 37 37 37 38 39 45 51
93 94 77 56 46 42 47 62 69 69 69 89 85 79 74 69 66 63 61 54 49 45 42 38 35 32 32 30 28 26 25 24 25 25 30 36 37 38 38 40 43 46 56 58
83 79 61 54 54 54 57 64 70 79 84 78 79 77 70 66 60 56 52 49 44 42 39 35 33 32 31 29 26 26 25 26 26 32 38 39 39 39 41 44 51 57 63 64
74 61 62 53 53 61 66 73 82 81 79 72 78 72 65 58 56 53 49 45 40 38 37 34 32 31 30 27 27 25 26 27 33 38 42 42 42 44 48 52 58 64 66 67
74 63 57 54 56 70 77 75 75 74 73 73 70 69 62 60 56 52 47 43 39 38 37 34 31 29 29 28 25 24 27 34 39 43 44 44 46 50 53 54 63 64 64 64
75 56 50 53 67 72 74 76 73 72 74 71 66 67 62 60 54 50 48 42 40 37 35 34 32 31 29 26 23 25 33 38 46 45 46 49 51 52 49 63 64 64 64 64
54 61 70 73 72 68 76 75 72 72 68 72 70 64 61 60 56 52 47 41 39 37 34 34 33 31 29 26 26 31 38 46 46 48 50 53 58 60 64 47 48 57 62 64
68 64 70 63 72 74 75 77 77 80 76 72 72 67 65 68 61 55 51 42 36 34 35 34 33 33 31 30 32 38 43 49 50 53 54 58 63 63 59 64 70 65 56 64
77 70 64 74 75 79 77 75 82 86 83 86 77 76 70 71 71 64 49 42 37 36 37 34 34 37 36 36 38 44 47 48 56 57 58 68 63 56 59 62 65 66 64 66
89 83 79 80 85 86 84 82 85 91 88 87 83 78 74 67 61 52 44 38 38 42 37 35 37 40 38 41 45 48 47 52 68 61 60 62 57 59 65 64 65 67 70 72
84 94 90 90 88 84 79 79 79 85 81 72 71 67 62 57 50 46 42 39 37 37 36 36 42 42 45 48 51 50 52 50 67 57 60 58 56 66 61 66 70 71 76 80
71 76 71 74 78 80 82 81 78 72 70 65 61 58 56 53 55 52 45 41 41 44 43 43 43 48 51 57 56 57 52 49 54 59 56 56 67 64 67 73 76 82 85 86
76 78 77 73 72 74 77 78 71 69 63 60 58 60 54 51 50 48 44 43 47 52 58 56 51 49 50 68 71 54 43 49 53 56 58 69 66 69 78 83 89 91 92 93
79 73 71 75 71 71 80 75 70 68 64 59 60 57 54 51 47 46 44 51 48 49 54 52 52 52 53 69 63 41 47 54 57 60 65 75 76 85 88 92 92 97 97 94
76 73 73 72 76 76 76 73 72 73 69 61 60 58 55 49 45 47 56 68 65 58 56 55 52 60 75 74 42 45 52 56 63 69 74 82 88 93 99 99 100 100 100 98
74 74 77 75 82 88 86 80 77 71 63 59 56 53 54 58 55 56 54 58 66 54 49 50 59 80 84 48 45 50 58 64 68 72 80 88 93 96 96 97 100 100 100 100
74 75 78 79 84 86 84 80 71 62 59 55 55 56 58 58 56 68 74 66 53 43 47 64 75 80 75 46 51 59 65 67 72 78 88 91 95 95 94 98 100 98 98 99
71 73 76 78 77 76 76 71 64 59 56 54 52 52 54 59 59 55 58 66 63 42 60 67 74 81 48 50 56 66 67 72 75 85 91 96 91 92 96 96 96 94 94 95
76 76 76 74 71 75 78 70 63 60 58 58 56 54 52 52 53 63 56 58 43 36 40 60 64 56 48 54 65 67 72 76 84 96 86 93 94 94 94 94 93 98 100 97
69 70 72 67 70 69 65 61 63 63 61 62 59 55 52 48 43 40 40 41 41 42 40 40 42 50 53 62 68 72 77 76 76 81 97 93 94 95 94 94 93 92 93 97
74 72 71 68 66 64 62 60 59 62 57 53 52 46 41 39 40 39 40 44 46 44 41 40 41 51 61 65 71 76 75 75 80 88 91 91 92 95 95 95 94 94 92 96
Wind_Speed
17 22 16 8 9 20 20 18 15 13 15 22 17 18 6 6 14 16 14 14 13 13 11 15 19 23 27 29 29 27 24 21 17 14 11 9 6 4 4 5 8 9 11 12
11 18 23 16 14 18 23 21 21 14 18 19 16 7 8 12 15 15 14 14 13 13 13 14 21 23 27 30 29 26 23 19 16 13 10 7 5 3 4 6 8 10 11 14
8 7 8 5 17 16 19 17 13 11 16 15 12 8 13 14 14 16 16 15 15 15 14 19 22 28 29 32 29 25 22 18 15 12 10 6 4 3 4 6 10 12 14 16
5 3 2 4 9 13 17 11 11 14 19 16 14 2 5 3 8 11 13 13 12 11 16 21 26 28 32 31 28 24 20 17 14 11 8 5 3 3 5 8 12 13 15 16
4 3 3 1 6 7 10 12 22 23 18 8 6 3 5 4 4 6 10 11 12 20 22 27 29 32 33 29 26 23 19 16 12 9 7 4 2 4 7 10 12 13 15 18
4 4 3 1 1 2 10 3 8 20 16 8 6 3 3 2 4 8 11 16 20 24 26 28 28 34 32 28 25 21 18 14 10 7 6 3 4 5 8 10 13 14 17 16
3 3 7 4 6 2 4 3 3 5 7 5 4 1 5 6 9 7 12 19 25 23 23 26 31 33 28 26 21 18 16 12 10 7 4 4 4 6 9 11 14 16 17 18
2 2 4 6 6 4 2 3 3 1 3 10 10 8 9 10 11 12 14 17 21 23 22 26 31 32 26 23 19 17 15 12 9 6 4 3 6 8 10 13 15 16 18 21
6 5 3 2 1 2 1 2 3 3 7 15 13 10 10 11 12 11 12 18 20 25 25 26 27 28 26 21 19 16 13 11 8 5 3 5 8 11 14 14 15 17 19 18
2 2 3 2 1 3 5 4 6 7 7 10 17 12 12 12 11 11 14 18 23 25 22 22 21 22 24 20 16 14 12 9 6 4 4 6 7 10 12 14 16 19 17 17
4 5 3 2 1 5 7 8 12 9 8 12 16 11 11 10 11 10 16 18 21 22 21 22 23 22 19 16 14 13 10 7 4 4 6 8 9 10 12 13 14 17 19 20
5 3 2 1 6 6 8 8 9 13 11 9 11 14 12 10 11 14 16 20 21 23 26 24 23 20 16 13 11 10 8 5 5 6 8 9 11 14 13 10 14 14 16 17
1 4 4 6 6 3 9 7 9 9 11 14 9 12 11 10 11 18 20 22 22 24 25 23 21 18 14 11 9 8 7 5 5 6 7 10 10 12 17 23 19 18 16 18
6 8 6 0 4 7 12 12 13 13 13 12 14 15 17 14 17 17 17 23 25 25 23 21 19 16 12 9 7 6 5 3 5 6 8 9 11 14 17 17 16 19 21 18
5 3 5 11 12 10 10 13 13 11 10 10 13 14 16 10 11 16 21 23 24 23 20 19 17 14 9 7 6 5 4 5 6 8 10 10 12 16 16 18 17 19 20 18
7 8 10 13 12 10 11 10 15 9 9 7 8 13 17 21 22 22 22 24 24 17 18 17 15 11 7 5 4 3 5 7 8 9 10 12 15 16 17 17 16 17 17 18
13 5 8 8 11 10 9 8 11 10 9 10 13 20 23 22 22 21 17 16 19 18 16 14 13 8 5 4 4 5 6 8 8 11 12 14 15 14 18 16 16 16 18 19
4 7 6 14 15 14 11 9 10 11 11 17 20 22 19 16 12 18 21 21 21 18 14 11 9 7 5 5 5 6 9 10 11 11 12 15 14 18 18 17 17 17 20 21
4 12 13 13 12 12 12 11 12 18 20 21 21 16 19 21 21 22 22 21 19 17 11 9 6 5 5 5 5 9 10 10 10 12 14 13 17 18 16 16 17 19 20 20
9 10 15 12 18 19 12 17 21 20 20 25 24 21 17 19 23 22 19 15 10 11 9 7 5 5 4 5 8 9 8 9 11 13 14 15 17 16 18 17 19 19 19 20
11 13 14 15 13 18 19 21 23 19 21 24 22 18 19 21 20 21 19 13 10 8 7 5 4 5 5 6 7 8 9 10 12 13 15 16 18 18 16 19 19 19 19 19
11 12 14 16 15 16 19 22 24 24 23 24 24 26 24 20 18 15 11 14 11 6 6 5 5 4 3 6 7 8 9 11 13 14 15 17 18 20 21 21 21 19 20 22
10 14 17 17 16 18 23 24 24 25 24 24 24 23 20 20 19 17 9 9 8 6 6 6 5 4 4 7 8 9 11 13 15 16 16 18 18 19 20 21 20 23 23 24
16 18 19 22 25 23 13 17 24 24 25 23 22 22 24 21 13 10 13 11 8 7 6 5 4 4 7 8 10 11 13 14 17 16 18 15 17 20 21 21 22 23 23 25
19 20 22 21 16 13 20 25 27 26 25 24 21 17 16 15 9 15 11 9 7 5 4 4 4 6 8 10 10 13 14 17 17 17 17 17 20 20 21 21 22 21 23 24
19 15 16 17 19 21 21 21 19 18 22 20 17 14 13 16 17 13 10 7 5 4 4 5 7 8 10 11 13 14 17 18 18 17 16 17 19 20 21 22 23 24 24 25
20 22 21 19 18 19 21 21 21 17 19 21 21 17 17 15 12 10 8 6 4 4 5 6 8 10 11 13 14 16 19 18 16 16 16 17 18 20 22 23 24 24 23 25
Wind_Direction
247 260 256 230 251 201 210 213 212 243 247 263 283 300 243 188 134 137 148 151 150 147 144 141 141 148 155 158 157 157 153 151 148 146 143 136 125 103 68 33 14 359 348 346
271 264 251 234 225 212 209 222 245 277 286 285 280 267 160 187 153 153 155 152 153 149 146 150 151 151 154 160 160 160 156 153 151 149 144 136 119 91 46 17 0 353 353 348
286 326 89 221 226 221 214 209 203 220 235 263 292 213 181 178 164 162 164 160 159 160 158 156 154 154 156 163 161 162 157 155 153 149 144 131 113 62 20 359 354 354 351 346
270 266 332 259 219 204 209 192 202 243 255 257 248 178 115 83 161 159 159 156 152 146 140 142 150 157 162 162 162 160 157 153 153 149 141 129 90 36 2 355 352 347 343 341
318 298 272 85 134 157 178 205 208 223 238 243 179 141 50 34 121 141 151 148 143 144 142 145 152 161 159 161 160 157 156 154 151 148 134 119 86 21 4 348 343 340 340 337
328 325 357 213 45 85 177 306 171 205 222 175 189 115 193 98 92 108 118 129 129 131 136 142 152 160 154 156 158 156 156 151 146 138 135 105 38 14 352 340 337 336 334 338
271 280 291 274 294 248 147 207 198 205 183 149 132 25 115 102 72 83 110 118 123 128 134 142 152 155 145 153 154 153 150 144 140 131 106 61 28 353 345 341 336 338 336 337
135 225 318 353 343 48 244 330 350 48 101 102 106 91 90 91 94 100 106 108 116 115 117 137 151 152 143 146 147 147 146 138 128 114 95 46 358 354 349 342 339 337 336 334
183 219 270 298 308 351 302 68 4 90 120 123 115 104 98 94 93 94 101 104 111 116 115 137 147 149 142 143 146 143 136 127 119 109 70 14 1 353 348 345 339 335 335 330
356 303 265 307 359 49 22 86 82 84 104 116 114 107 103 101 100 99 99 106 114 114 113 122 138 144 140 141 143 139 129 122 113 85 29 8 360 352 344 339 334 334 332 324
260 261 270 244 4 107 86 91 89 67 84 113 113 105 112 103 97 96 100 102 113 116 115 123 131 130 134 137 139 129 125 116 90 36 8 356 347 344 338 334 329 328 326 326
220 218 156 178 147 128 113 113 108 112 95 79 108 112 109 100 102 109 108 114 111 118 123 129 127 123 125 129 135 130 117 93 48 13 355 343 335 330 339 332 330 329 326 325
223 95 64 99 92 69 108 111 106 100 109 105 84 106 106 108 105 115 116 121 125 129 131 130 126 122 124 124 123 111 93 60 24 352 341 338 338 337 335 338 341 337 333 328
120 108 65 105 134 104 109 103 95 85 88 101 108 102 107 109 118 119 124 134 135 133 131 130 126 119 120 118 110 91 75 46 358 349 343 341 340 339 338 334 324 324 336 328
19 355 131 115 106 105 113 115 101 100 106 91 98 109 114 112 109 117 131 134 134 131 130 131 126 121 121 112 97 82 53 14 356 352 351 342 338 339 338 334 323 316 322 324
74 81 107 119 122 120 121 114 115 114 108 104 104 100 110 116 120 127 133 138 133 132 137 134 125 120 118 109 89 58 24 14 2 347 345 346 344 340 338 331 321 317 316 321
115 95 111 115 132 132 130 123 126 128 126 120 116 119 116 113 113 118 124 132 131 130 133 132 125 125 118 92 53 27 8 354 353 354 351 343 340 338 333 326 316 315 316 321
93 96 125 144 145 135 122 117 121 124 121 121 121 120 117 119 123 122 126 127 120 115 122 126 124 117 96 56 26 6 357 360 358 351 343 344 343 333 333 325 318 318 319 320
127 128 127 130 133 128 128 123 114 115 120 125 123 115 124 127 130 132 135 130 128 125 124 120 114 101 76 44 4 1 359 354 348 348 348 341 335 337 329 324 322 320 319 319
107 113 120 118 124 129 120 116 117 115 124 130 124 118 114 127 135 134 134 120 128 130 127 118 105 77 39 27 0 359 354 350 350 349 347 337 337 330 328 328 325 319 318 318
124 126 125 123 116 115 119 126 124 122 131 135 127 124 125 137 139 139 128 112 118 123 122 117 89 50 28 3 356 353 351 352 350 345 341 340 336 334 329 327 323 319 319 319
126 124 121 119 112 104 111 118 122 126 128 127 129 132 131 131 132 120 122 130 132 135 124 105 75 54 21 355 354 352 352 349 343 342 341 340 337 336 335 332 324 321 320 319
116 116 115 116 115 109 107 116 125 130 125 131 134 135 132 138 138 127 118 134 133 127 117 92 64 50 357 352 351 350 345 342 341 342 339 338 334 334 334 331 321 325 329 327
115 110 109 113 114 109 103 107 124 129 131 133 138 144 142 132 111 121 126 127 124 120 91 64 50 25 350 351 348 344 341 340 339 340 335 331 336 339 336 332 331 333 334 333
115 117 118 115 109 110 114 120 118 122 124 125 128 133 137 136 136 138 135 125 117 107 92 52 24 356 349 347 344 341 340 339 341 332 332 335 336 335 334 333 334 332 327 327
123 116 108 116 125 129 128 125 117 121 124 118 123 128 128 128 131 133 130 122 108 87 50 19 3 348 344 344 341 340 339 338 336 336 330 331 332 333 335 335 333 332 331 331
103 111 111 107 113 122 126 127 127 129 137 136 129 134 131 129 125 124 120 111 90 52 19 360 351 347 345 342 339 337 337 337 334 329 327 331 332 334 335 334 331 329 327 331